Regional Weather Roundup
Issued by NWS

Home | Current Version | Previous Version | Graphics & Text | Print | Product List | Glossary On
Versions: 1 2 3 4 5 6 7 8 9 10 11 12 13 14 15 16 17 18 19 20 21 22 23 24 25 26 27 28 29 30 31 32 33 34 35 36 37 38 39 40 41 42 43 44 45 46 47 48 49 50
000
ASUS43 KDTX 261710
RWRMI
MICHIGAN HOURLY REGIONAL WEATHER ROUNDUP
NATIONAL WEATHER SERVICE DETROIT/PONTIAC MI
100 PM EDT TUE JUL 26 2016

NOTE: "FAIR" INDICATES FEW OR NO CLOUDS BELOW 12,000 FEET WITH NO
SIGNIFICANT WEATHER AND/OR OBSTRUCTION TO VISIBILITY.

MIZ047>049-052>055-059>063-066>070-074>076-081>083-261800-
SOUTHEAST LOWER MICHIGAN

CITY           SKY/WX    TMP DP  RH WIND       PRES   REMARKS
ADRIAN         SUNNY     83  55  38 VRB3      30.08F
ALMA           MOSUNNY   85  62  46 W7        30.05F
ANN ARBOR      MOSUNNY   84  59  42 SE6       30.06F
BAD AXE        MOSUNNY   82  59  45 W8        30.05F
CARO           SUNNY     83  62  48 SW9       30.04F
DETROIT CITY   MOSUNNY   82  60  47 CALM      30.05F
DETROIT        PTSUNNY   86  57  37 CALM      30.06F
FLINT          MOSUNNY   85  60  42 CALM      30.06F
GROSSE ILE     SUNNY     78  67  67 S10       30.06F
HOWELL         SUNNY     83  58  42 SW5       30.07F

CITY           SKY/WX    TMP DP  RH WIND       PRES   REMARKS
JACKSON        SUNNY     82  57  42 CALM      30.08F
LAMBERTVILLE   SUNNY     82  60  47 E6        30.08F
LANSING        MOSUNNY   83  60  45 MISG      30.07F
LAPEER         PTSUNNY   84  58  40 W8        30.06F
MASON          PTSUNNY   81  62  51 SW6       30.08S
MONROE         MOSUNNY   80  67  64 S8G16     30.07S
MT. CLEMENS    MOSUNNY   81  64  55 SE7       30.04F
PONTIAC        MOSUNNY   83  59  44 VRB7      30.06F
PORT HURON     MOSUNNY   81  63  54 S6        30.05F
TRI CITIES     MOSUNNY   83  65  54 SW8       30.04F
MIDLAND        PTSUNNY   84  62  48 SW9       30.02F
TROY           PTSUNNY   83  54  36 CALM      30.07F
SAGINAW HB     SUNNY     84  59  42 SW8       30.03F
$$
MIZ043>046-050>051-056>058-064>065-071>073-077>080-261800-
SOUTHWEST LOWER MICHIGAN

CITY           SKY/WX    TMP DP  RH WIND       PRES   REMARKS
BATTLE CREEK     N/A     77  60  55 CALM      30.08F
BENTON HARBOR  SUNNY     82  63  52 NW6       30.07S
BIG RAPIDS     MOSUNNY   83  57  41 W7        30.05F
COLDWATER      PTSUNNY   82  60  47 CALM      30.08F
FREMONT        FAIR      83  56  40 CALM      30.05F
HOLLAND          N/A     83  64  52 VRB6      30.07F
GRAND RAPIDS   MOSUNNY   81  60  48 SW3       30.06F
IONIA          FAIR      82  60  47 CALM      30.05F
KALAMAZOO      MOSUNNY   84  60  44 N3        30.08F
LUDINGTON      SUNNY     81  65  59 SW7       30.04F
MARSHALL       SUNNY     82  57  42 CALM      30.08F
MOUNT PLEASANT MOSUNNY   84  61  46 W5        30.03F
MUSKEGON       MOSUNNY   84  64  50 SW9       30.05F
SOUTH HAVEN    SUNNY     82  63  51 NW6       30.07S
$$
MIZ016>042-261800-
NORTHERN LOWER MICHIGAN

CITY           SKY/WX    TMP DP  RH WIND       PRES   REMARKS
ALPENA         MOSUNNY   86  54  33 VRB7      30.01F
BEAVER ISLAND  SUNNY     79  64  59 SW10      30.01S
BELLAIRE       SUNNY     83  58  42 CALM      30.02F
CADILLAC       MOSUNNY   83  56  40 W6        30.06S
CHARLEVOIX     SUNNY     83  56  39 W13       30.04F
FRANKFORT      SUNNY     80  63  57 SW7       30.04F
GAYLORD        MOSUNNY   82  56  40 W10       30.04F
GRAYLING       SUNNY     85  57  37 NW6       30.05S
HARBOR SPRINGS SUNNY     78  64  62 W7        30.01F
HOUGHTON LAKE  SUNNY     80  58  46 SW7       30.06F
MANISTEE       SUNNY     84  60  44 W8        30.03F
OSCODA         CLOUDY    82  57  42 E5        30.01F
ROGERS CITY    MOSUNNY   83  55  38 W6        30.01F
TRAVERSE CITY  MOSUNNY   86  57  37 VRB5      30.00F
$$
MIZ007>008-015-261800-
EASTERN UPPER MICHIGAN

CITY           SKY/WX    TMP DP  RH WIND       PRES   REMARKS
KINROSS        MOSUNNY   81  62  52 VRB5      29.99S
MACKINAC ISLAN SUNNY     76  64  66 SW12      30.00F
NEWBERRY       SUNNY     84  59  42 SW12      29.99S
S. S. MARIE    SUNNY     81  61  50 W9        29.97F
MUNISING         N/A     77  67  71 NE9       29.97
$$
MIZ004>006-011>014-085-261800-
CENTRAL UPPER MICHIGAN

CITY           SKY/WX    TMP DP  RH WIND       PRES   REMARKS
MANISTIQUE     SUNNY     78  68  71 S9        29.99S
ESCANABA       SUNNY     81  68  65 S10       29.98F
MENOMINEE      MOSUNNY  N/A N/A N/A W5          N/A
SAWYER-GWINN   PTSUNNY   81  63  54 MISG      30.00F
$$
MIZ001>003-009>011-084-261800-
WESTERN UPPER MICHIGAN

CITY           SKY/WX    TMP DP  RH WIND       PRES   REMARKS
IRON MOUNTAIN  MOSUNNY   86  63  45 VRB6      30.00F
HOUGHTON       MOSUNNY   79  64  60 SW5       29.96F
COPPER HARBOR    N/A     74  65  73 N14       29.93F
IRONWOOD       SUNNY    N/A N/A N/A W15G23    29.95F
$$

ABBREVIATIONS USED IN REMARKS
   TC - TEMPERATURE IN CELSIUS
  WCI - WIND CHILL INDEX
   HX - HEAT INDEX
  VSB - VISIBILITY





USA.gov is the U.S. government's official web portal to all federal, state and local government web resources and services.